Hourly Data Report for July 19, 2012

HALIFAX STANFIELD INT'L A
NOVA SCOTIA

44°52'48.060" N
63°30'00.050" W
145.40 m
8202250
71395
YHZ

Download Data

Hourly Data (July 2012)
Hourly Data Report for July 19, 2012
TIME
LST
Temp Definition
°C
Dew Point Definition
°C
Rel Hum Definition
%
Precip. Amount Definition
mm

Wind Dir Definition
10's deg

Wind Spd Definition
km/h
Visibility Definition
km
Stn Press Definition
kPa
Hmdx Definition


Wind Chill Definition


Weather Definition


00:00 21.5 15.8 70   28 13 24.1 99.28 26   Cloudy
01:00 20.7 16.0 74   24 9 24.1 99.24 25   Cloudy
02:00 20.0 16.2 79   23 13 24.1 99.22 25   Cloudy
03:00 19.9 15.9 78   25 15 24.1 99.16     Cloudy
04:00 19.2 15.6 80   24 9 24.1 99.18     Cloudy
05:00 18.8 15.7 82   23 9 24.1 99.21     Mostly Cloudy
06:00 18.8 15.5 81   30 11 24.1 99.24     Mostly Cloudy
07:00 18.5 14.7 79   30 13 24.1 99.26     Mostly Cloudy
08:00 19.5 14.8 74   32 19 24.1 99.30     Mainly Clear
09:00 20.3 14.6 70   29 9 24.1 99.29     Mainly Clear
10:00 21.6 14.8 65   31 9 24.1 99.25 25   Mainly Clear
11:00 22.7 13.1 55   32 20 24.1 99.22 26   Mainly Clear
12:00 22.9 11.9 50   31 22 24.1 99.20 25   Mainly Clear
13:00 23.3 12.3 50   29 19 24.1 99.12 26   Mainly Clear
14:00 23.2 12.1 50   30 22 24.1 99.10 26   Mostly Cloudy
15:00 23.1 11.6 48   29 24 24.1 99.08 25   Mostly Cloudy
16:00 22.3 9.0 43   32 30 24.1 99.11     Mostly Cloudy
17:00 20.7 10.7 53   31 22 24.1 99.15     Mostly Cloudy
18:00 20.5 9.6 50   29 26 24.1 99.17     Mostly Cloudy
19:00 20.5 9.9 51   29 20 24.1 99.21     Mainly Clear
20:00 18.9 10.2 57   28 17 24.1 99.25     Mainly Clear
21:00 17.9 9.8 59   29 17 24.1 99.30     Mainly Clear
22:00 17.0 9.3 60   31 24 24.1 99.36     Mainly Clear
23:00 15.9 9.3 65   30 19 24.1 99.38     Clear

Notes on Data Quality.

Legend

  • E = Estimated
  • M = Missing
  • NA = Not Available*
  • [empty] = Indicates an unobserved value
Date modified: